Weather History for KSWF - March, 2013

Change the Weather History Date:

Sunday, March 10, 2013

  Actual Average Record
Temperature  
Mean Temperature 34 °F -  
Max Temperature 48 °F 41 °F 68 °F (2006)
Min Temperature 21 °F 23 °F -7 °F (1984)
Degree Days  
Heating Degree Days 30    
Moisture  
Dew Point 29 °F    
Average Humidity 72    
Maximum Humidity 93    
Minimum Humidity 50    
Precipitation  
Precipitation 0.00 in - - ()
Sea Level Pressure  
Sea Level Pressure 30.32 in    
Wind  
Wind Speed 3 mph (South)    
Max Wind Speed 13 mph    
Max Gust Speed -    
Visibility 15 miles    
Events      
Averages and records for this station are not official NWS values.
T = Trace of Precipitation, MM = Missing Value Source: NWS Daily Summary

Daily Weather History Graph

Daily Weather History Graph

Search for Another Location

Airport or City:

Trip Planner

Search our weather history database for the weather conditions in past years. The results will help you decide how hot, cold, wet, or windy it might be!

Date:

Astronomy

Mar. 10, 2013 Rise Set
Actual Time 7:16 AM EDT 6:57 PM EDT
Civil Twilight 6:48 AM EDT 7:25 PM EDT
Nautical Twilight 6:16 AM EDT 7:57 PM EDT
Astronomical Twilight 5:44 AM EDT 8:29 PM EDT
Moon 6:15 AM EDT (3/10) 6:02 PM EDT (3/10)
Length of Visible Light 12h 36m
Length of Day
11h 41m
Waning Crescent, 2% of the Moon is Illuminated
Mar 10
Waning Crescent
Mar 11
New
Mar 19
First Quarter
Mar 27
Full
Apr 3
Last Quarter

Hourly Weather History & Observations

Time (EDT) Temp. Windchill Dew Point Humidity Pressure Visibility Wind Dir Wind Speed Gust Speed Precip Events Conditions
1:45 AM 28.4 °F - 23.0 °F 80% 30.33 in 10.0 mi Calm Calm - N/A   Clear
5:45 AM 24.8 °F - 21.2 °F 86% 30.34 in 10.0 mi Calm Calm - N/A   Clear
6:45 AM 21.2 °F - 19.4 °F 93% 30.35 in 10.0 mi Calm Calm - N/A   Clear
7:45 AM 24.8 °F - 23.0 °F 93% 30.37 in 20.0 mi Calm Calm - N/A   Clear
8:45 AM 28.4 °F - 24.8 °F 86% 30.37 in 20.0 mi Calm Calm - N/A   Clear
9:45 AM 37.4 °F - 28.4 °F 70% 30.38 in 20.0 mi Calm Calm - N/A   Clear
10:45 AM 39.2 °F 35.9 °F 28.4 °F 65% 30.37 in 20.0 mi Variable 4.6 mph - N/A   Clear
11:45 AM 41.0 °F - 28.4 °F 61% 30.36 in 20.0 mi Calm Calm - N/A   Clear
12:45 PM 44.6 °F - 28.4 °F 53% 30.25 in 20.0 mi Calm Calm - N/A   Scattered Clouds
2:45 PM 48.2 °F - 30.2 °F 50% 30.31 in 20.0 mi SSE 10.4 mph - N/A   Scattered Clouds
4:45 PM 48.2 °F - 33.8 °F 58% 30.28 in 20.0 mi South 12.7 mph - N/A   Scattered Clouds
5:45 PM 48.2 °F - 32.0 °F 54% 30.27 in 20.0 mi SSE 9.2 mph - N/A   Scattered Clouds
6:45 PM 46.4 °F 42.4 °F 33.8 °F 62% 30.29 in 20.0 mi SSE 8.1 mph - N/A   Scattered Clouds
7:45 PM 42.8 °F 38.0 °F 33.8 °F 70% 30.28 in 10.0 mi South 8.1 mph - N/A   Scattered Clouds
8:45 PM 42.8 °F 37.0 °F 33.8 °F 70% 30.28 in 10.0 mi South 10.4 mph - N/A   Scattered Clouds
9:45 PM 39.2 °F 33.6 °F 33.8 °F 81% 30.28 in 10.0 mi South 8.1 mph - N/A   Scattered Clouds
10:45 PM 39.2 °F 35.0 °F 33.8 °F 81% 30.29 in 10.0 mi South 5.8 mph - N/A   Scattered Clouds
11:45 PM 37.4 °F 32.8 °F 32.0 °F 81% 30.30 in 10.0 mi South 5.8 mph - N/A   Scattered Clouds
12:45 AM 37.4 °F 30.8 °F 32.0 °F 81% 30.31 in 10.0 mi West 9.2 mph - N/A   Scattered Clouds